Location: Unspecified
(0.0000°N, 0.0000°E)
Time: 11:08:05
(UTC+00:00)

YUBILEINY - Visible Passes

Search period start: 15 December 2019 00:00
Search period end: 25 December 2019 00:00
Orbit: 1477 x 1509 km, 82.5° (Epoch: 15 December)

Date Brightness Start Highest point End Pass type
(mag) Time Alt. Az. Time Alt. Az. Time Alt. Az.
15 Dec ? 20:12:12 10° S 20:20:59 73° E 20:21:02 73° E visible
15 Dec ? 22:14:35 10° WSW 22:16:59 12° W 22:16:59 12° W visible
16 Dec ? 19:23:54 10° SSE 19:31:34 34° E 19:32:36 33° E visible
16 Dec ? 21:20:32 10° SW 21:27:56 31° W 21:28:34 31° W visible
17 Dec ? 18:38:23 10° ESE 18:42:06 13° E 18:44:13 12° ENE visible
17 Dec ? 20:29:49 10° SSW 20:38:32 68° W 20:40:11 58° NW visible
18 Dec ? 19:40:30 10° S 19:49:07 59° E 19:51:51 43° NE visible
18 Dec ? 21:40:32 10° WSW 21:45:29 16° W 21:47:50 15° WNW visible
19 Dec ? 18:52:44 10° SE 18:59:40 26° E 19:03:36 19° ENE visible
19 Dec ? 20:48:06 10° SSW 20:56:04 39° W 20:59:36 29° NW visible
20 Dec ? 19:57:50 10° S 20:06:39 84° W 20:11:25 32° N visible
21 Dec ? 19:08:55 10° SSE 19:17:14 47° E 19:23:19 19° NNE visible
21 Dec ? 21:07:23 10° SW 21:13:36 22° W 21:19:18 11° NW visible
22 Dec ? 18:21:49 10° SE 18:27:47 20° E 18:33:40 10° NE visible
22 Dec ? 20:15:50 10° SSW 20:24:11 50° W 20:31:18 15° NNW visible
23 Dec ? 19:25:59 10° S 19:34:46 79° E 19:43:24 10° N visible
23 Dec ? 21:31:02 10° W 21:31:08 10° W 21:31:15 10° W visible
24 Dec ? 18:37:30 10° SSE 18:45:20 37° E 18:53:05 10° NNE visible
24 Dec ? 20:34:37 10° SW 20:41:43 28° W 20:48:48 10° NNW visible
